Hourly Data Report for November 19, 2016

PITT MEADOWS CS
BRITISH COLUMBIA

49°12'29.964" N
122°41'24.076" W
5.00 m
1106178
71775
WMM

Download Data

Hourly Data (November 2016)
Hourly Data Report for November 19, 2016
TIME
LST
Temp Definition
°C
Dew Point Definition
°C
Rel Hum Definition
%
Precip. Amount Definition
mm

Wind Dir Definition
10's deg

Wind Spd Definition
km/h
Visibility Definition
km
Stn Press Definition
kPa
Hmdx Definition


Wind Chill Definition


Weather Definition


00:00 7.1 3.0 75 0.0 13 5   100.57     LegendNANA
01:00 7.2 3.1 75 0.0 10 5   100.55     LegendNANA
02:00 7.3 3.0 74 0.0 10 8   100.54     LegendNANA
03:00 7.3 3.6 77 0.0 5 4   100.58     LegendNANA
04:00 7.1 4.5 84 0.3 4 15   100.57     LegendNANA
05:00 7.1 4.6 84 0.1 4 8   100.52     LegendNANA
06:00 6.4 4.7 89 0.2 9 4   100.52     LegendNANA
07:00 7.1 4.5 84 0.0 6 6   100.49     LegendNANA
08:00 6.9 4.7 86 0.0 12 6   100.55     LegendNANA
09:00 7.5 5.0 84 0.0 8 3   100.57     LegendNANA
10:00 8.0 5.1 82 0.0 11 5   100.61     LegendNANA
11:00 8.4 5.6 83 0.0 10 5   100.64     LegendNANA
12:00 9.3 5.7 78 0.0 1 2   100.59     LegendNANA
13:00 9.6 5.5 76 0.0 4 14   100.55     LegendNANA
14:00 9.3 5.6 77 0.0 3 10   100.51     LegendNANA
15:00 9.3 6.3 82 0.0 4 5   100.49     LegendNANA
16:00 8.8 6.3 85 0.0 12 4   100.52     LegendNANA
17:00 8.5 6.5 87 0.0 4 2   100.51     LegendNANA
18:00 8.3 6.4 88 0.0 11 6   100.49     LegendNANA
19:00 8.2 6.4 89 0.0 6 2   100.43     LegendNANA
20:00 7.5 5.9 89 0.0 11 4   100.39     LegendNANA
21:00 7.9 6.1 88 0.0 12 6   100.35     LegendNANA
22:00 8.2 6.2 88 0.0 14 4   100.36     LegendNANA
23:00 8.1 6.5 90 0.4 6 4   100.40     LegendNANA

Notes on Data Quality.

Legend

  • E = Estimated
  • M = Missing
  • NA = Not Available*
  • [empty] = Indicates an unobserved value
Date modified: